Weather History for Kaneohe MCBH, HI

Change the Weather History Date:

Saturday, January 11, 2014

  Actual Average Record
Temperature  
Mean Temperature 73 °F -  
Max Temperature 77 °F 76 °F 80 °F (2004)
Min Temperature 69 °F 66 °F 57 °F (2011)
Cooling Degree Days 8    
Growing Degree Days 23 (Base 50)    
Moisture  
Dew Point 64 °F    
Average Humidity 72    
Maximum Humidity 84    
Minimum Humidity 58    
Precipitation  
Precipitation 0.00 in - - ()
Sea Level Pressure  
Sea Level Pressure 29.93 in    
Wind  
Wind Speed 2 mph (SW)    
Max Wind Speed 12 mph    
Max Gust Speed -    
Visibility 7 miles    
Events      
Averages and records for this station are not official NWS values.
T = Trace of Precipitation, MM = Missing Value Source: NWS Daily Summary

Daily Weather History Graph

Daily Weather History Graph

Search for Another Location

Airport:

Trip Planner

Search our weather history database for the weather conditions in past years. The results will help you decide how hot, cold, wet, or windy it might be!

Date:

Astronomy

Jan. 11, 2014 Rise Set
Actual Time 7:11 AM HST 6:07 PM HST
Civil Twilight 6:47 AM HST 6:31 PM HST
Nautical Twilight 6:19 AM HST 6:58 PM HST
Astronomical Twilight 5:52 AM HST 7:25 PM HST
Moon 2:54 PM HST (1/11) 3:32 AM HST (1/11)
Length of Visible Light 11h 43m
Length of Day
10h 56m
Waxing Gibbous, 84% of the Moon is Illuminated
Jan 11
Waxing Gibbous
Jan 15
Full
Jan 23
Last Quarter
Jan 30
New
Feb 6
First Quarter

Hourly Weather History & Observations

Time (HST) Temp. Dew Point Humidity Pressure Visibility Wind Dir Wind Speed Gust Speed Precip Events Conditions
12:53 AM 71.6 °F 64.4 °F 78% 29.93 in 6.2 mi Variable 4.6 mph - N/A   Mostly Cloudy
12:57 AM 71.6 °F 64.9 °F 79% 29.92 in 9.0 mi Calm Calm - N/A   Mostly Cloudy
1:57 AM 69.8 °F 64.9 °F 84% 29.89 in 9.0 mi ESE 3.5 mph - N/A   Scattered Clouds
2:57 AM 69.8 °F 64.9 °F 84% 29.88 in 9.0 mi Calm Calm - N/A   Mostly Cloudy
3:57 AM 69.8 °F 63.0 °F 79% 29.88 in 9.0 mi Calm Calm - N/A   Overcast
4:57 AM 69.8 °F 63.0 °F 79% 29.88 in 9.0 mi SSW 3.5 mph - N/A   Overcast
5:57 AM 69.8 °F 64.0 °F 82% 29.89 in 8.0 mi Calm Calm - 0.00 in   Partly Cloudy
6:57 AM 71.6 °F 62.1 °F 72% 29.90 in 7.0 mi Calm Calm - N/A   Clear
7:57 AM 71.6 °F 61.0 °F 69% 29.91 in 6.0 mi Calm Calm - N/A   Clear
8:57 AM 73.4 °F 63.0 °F 70% 29.93 in 7.0 mi Calm Calm - N/A   Partly Cloudy
9:57 AM 77.0 °F 69.1 °F 76% 29.96 in 7.0 mi South 4.6 mph - N/A   Partly Cloudy
10:57 AM 77.0 °F 68.0 °F 74% 29.95 in 10.0 mi Calm Calm - N/A   Partly Cloudy
11:57 AM 77.9 °F 66.0 °F 67% 29.93 in 7.0 mi ESE 4.6 mph - N/A   Mostly Cloudy
12:57 PM 77.0 °F 64.9 °F 66% 29.91 in 7.0 mi WSW 5.8 mph - N/A   Overcast
1:57 PM 77.0 °F 62.1 °F 60% 29.88 in 10.0 mi SW 11.5 mph - N/A   Mostly Cloudy
2:57 PM 77.0 °F 61.0 °F 58% 29.89 in 10.0 mi West 5.8 mph - N/A   Overcast
3:57 PM 77.0 °F 62.1 °F 60% 29.88 in 7.0 mi Calm Calm - 0.00 in   Mostly Cloudy
4:57 PM 77.0 °F 63.0 °F 62% 29.90 in 7.0 mi NNW 3.5 mph - N/A   Overcast
5:57 PM 77.0 °F 64.0 °F 64% 29.91 in 7.0 mi NNW 3.5 mph - N/A   Mostly Cloudy
6:57 PM 77.0 °F 64.0 °F 64% 29.93 in 8.0 mi Calm Calm - N/A   Mostly Cloudy
7:57 PM 75.2 °F 64.9 °F 70% 29.94 in 7.0 mi Calm Calm - N/A   Partly Cloudy
8:37 PM 77.0 °F 64.4 °F 65% 29.98 in 6.2 mi Calm Calm - N/A   Overcast
8:45 PM 77.0 °F 64.4 °F 65% 29.97 in 6.2 mi Calm Calm - N/A   Mostly Cloudy
8:57 PM 77.0 °F 64.0 °F 64% 29.96 in 7.0 mi Calm Calm - N/A   Mostly Cloudy
9:08 PM - - N/A% 29.97 in 5.0 mi Calm Calm - N/A   Haze
9:37 PM 71.6 °F 64.4 °F 78% 29.98 in 6.2 mi Calm Calm - N/A   Scattered Clouds
9:57 PM 71.6 °F 64.9 °F 79% 29.96 in 7.0 mi Calm Calm - N/A   Partly Cloudy
10:18 PM - - N/A% 29.98 in 5.0 mi Calm Calm - N/A   Haze
10:57 PM 71.6 °F 64.9 °F 79% 29.97 in 7.0 mi Calm Calm - N/A   Mostly Cloudy
11:57 PM 69.8 °F 64.9 °F 84% 29.96 in 7.0 mi Calm Calm - N/A   Scattered Clouds